Terug naar catalogus

ATLAS 5 CENTAUR R/B

ActiefMEO
NORAD 66455·ROCKET BODY·🇺🇸 United States

Gelanceerd Nov 13, 2025 vanaf Cape Canaveral Space Force Station

Loading…

Volgende Passages (komende 24 uur)

TLE

VersSource: Space-Track

Epoch: Sep 14, 2026, 17:25 UTC

1 66455U 25261B   26257.72630738 -.00000091  00000-0  00000-0 0  9991
2 66455   5.8028 263.1495 2318582 242.9637 132.3058  2.28261472  6959

Volg ATLAS 5 CENTAUR R/B in realtime met AllMySat

Download on the App Store